Home   Weather   Finland   Helsinki   Past weeks
Flag for Finland

Past Weather in Helsinki, Finland — May 2015

Currently: 68 °F. Sunny. (Weather station: Helsinki-Vantaa, Finland). See more current weather

May 2015 Weather in Helsinki — Graph

°F

High & Low Weather Summary for May 2015

 TemperatureHumidityPressure
High64 °F (May 26, 1:50 pm)100% (May 2, 4:50 pm)30.18 "Hg (May 2, 4:50 pm)
Low30 °F (May 10, 5:20 am)20% (May 4, 6:20 pm)29.30 "Hg (May 13, 5:50 pm)
Average49 °F68%29.82 "Hg
* Reported May 1 12:20 am — May 31 11:50 pm, Helsinki. Weather by CustomWeather, © 2022

Note: Actual official high and low records may vary slightly from our data, if they occured in-between our weather recording intervals... More about our weather records

Helsinki Weather History for May 1, 2015

Scroll right to see more
 ConditionsComfort  
Time TempWeatherWind HumidityBarometerVisibility
12:20 am
Fri, May 1
39 °FClear.8 mph81%30.09 "Hg10 mi
12:50 am41 °FClear.8 mph76%30.09 "Hg10 mi
1:20 am41 °FClear.8 mph76%30.07 "Hg10 mi
1:50 am41 °FClear.9 mph76%30.07 "Hg10 mi
2:20 am41 °FClear.8 mph76%30.07 "Hg10 mi
2:50 am41 °FClear.7 mph76%30.07 "Hg10 mi
3:20 am43 °FClear.8 mph71%30.07 "Hg10 mi
3:50 am43 °FClear.10 mph71%30.04 "Hg10 mi
4:20 am45 °FClear.10 mph61%30.04 "Hg10 mi
4:50 am45 °FClear.14 mph61%30.01 "Hg10 mi
5:20 am45 °FClear.14 mph61%30.01 "Hg10 mi
5:50 am45 °FClear.16 mph57%30.01 "Hg10 mi
6:20 am45 °FSunny.14 mph61%30.01 "Hg10 mi
7:20 am45 °FSunny.14 mph61%30.01 "Hg10 mi
7:50 am45 °FSunny.14 mph66%29.98 "Hg10 mi
8:20 am46 °FSunny.13 mph57%29.98 "Hg10 mi
8:50 am46 °FSunny.15 mph57%29.98 "Hg10 mi
9:20 am46 °FSunny.16 mph62%29.98 "Hg10 mi
9:50 am48 °FSunny.17 mph58%29.98 "Hg10 mi
10:20 am48 °FSunny.13 mph58%29.95 "Hg10 mi
10:50 am50 °FSunny.16 mph54%29.95 "Hg10 mi
11:20 am52 °FSunny.18 mph50%29.95 "Hg10 mi
11:50 am54 °FSunny.17 mph47%29.95 "Hg10 mi
12:20 pm54 °FSunny.21 mph44%29.92 "Hg10 mi
12:50 pm54 °FSunny.15 mph47%29.92 "Hg10 mi
1:20 pm54 °FSunny.20 mph44%29.92 "Hg10 mi
1:50 pm54 °FPassing clouds.16 mph47%29.89 "HgN/A
2:20 pm54 °FOvercast.16 mph47%29.89 "HgN/A
2:50 pm54 °FOvercast.18 mph44%29.89 "HgN/A
3:20 pm54 °FOvercast.20 mph44%29.86 "HgN/A
3:50 pm54 °FSunny.18 mph44%29.86 "Hg10 mi
4:20 pm54 °FSunny.20 mph44%29.86 "Hg10 mi
4:50 pm54 °FSunny.17 mph41%29.83 "Hg10 mi
5:20 pm54 °FSunny.20 mph41%29.83 "Hg10 mi
5:50 pm54 °FPassing clouds.15 mph41%29.83 "HgN/A
6:20 pm54 °FPassing clouds.16 mph41%29.80 "HgN/A
6:50 pm54 °FSunny.17 mph38%29.80 "Hg10 mi
7:20 pm52 °FSunny.16 mph44%29.80 "Hg10 mi
7:50 pm52 °FSunny.13 mph41%29.77 "Hg10 mi
8:20 pm52 °FSunny.10 mph44%29.77 "Hg10 mi
8:50 pm50 °FSunny.10 mph47%29.77 "Hg10 mi
9:20 pm50 °FSunny.10 mph47%29.74 "Hg10 mi
9:50 pm48 °FSunny.10 mph50%29.74 "Hg10 mi
10:20 pm46 °FClear.12 mph53%29.74 "Hg10 mi
10:50 pm46 °FClear.10 mph53%29.71 "Hg10 mi
11:20 pm45 °FClear.12 mph57%29.71 "Hg10 mi
Weather by CustomWeather, © 2022

See weather overview